EW4115 Weather Reports


time (UTC)temp
C
wind
direction
speed
KPH
gust
KPH
rain 1hr
cm
rain 24hr
cm
rain mn
cm
humidity
%
barometer
mb
20260506150007 26 276 4.8 17.7 0.00 0.00 0.00 33 1014.9
20260506144513 26 300 1.6 12.9 0.00 0.00 0.00 34 1014.9
20260506143005 26 239 3.2 12.9 0.00 0.00 0.00 34 1014.8
20260506141506 26 235 6.4 20.9 0.00 0.00 0.00 35 1014.8
20260506140005 26 235 3.2 16.1 0.00 0.00 0.00 34 1014.8
20260506134504 26 231 1.6 17.7 0.00 0.00 0.00 33 1014.9
20260506133002 26 259 4.8 17.7 0.00 0.00 0.00 33 1014.9
20260506131502 26 219 1.6 16.1 0.00 0.00 0.00 33 1014.9
20260506130000 26 241 1.6 16.1 0.00 0.00 0.00 32 1014.9
20260506124609 27 175 3.2 16.1 0.00 0.00 0.00 33 1015.0
20260506123101 27 277 6.4 14.5 0.00 0.00 0.00 30 1015.1
20260506121558 27 249 3.2 16.1 0.00 0.00 0.00 31 1015.1
20260506120058 26 241 1.6 17.7 0.00 0.00 0.00 33 1015.2
20260506114602 27 256 3.2 16.1 0.00 0.00 0.00 34 1015.2
20260506113056 27 152 1.6 12.9 0.00 0.00 0.00 32 1015.4
20260506111554 27 180 3.2 16.1 0.00 0.00 0.00 32 1015.4
20260506110054 27 208 3.2 19.3 0.00 0.00 0.00 35 1015.4
20260506104557 27 252 3.2 12.9 0.00 0.00 0.00 36 1015.3
20260506103054 26 243 3.2 12.9 0.00 0.00 0.00 37 1015.4
20260506101548 26 262 4.8 14.5 0.00 0.00 0.00 37 1015.5
20260506100046 26 249 3.2 14.5 0.00 0.00 0.00 37 1015.6
20260506094544 26 223 1.6 12.9 0.00 0.00 0.00 38 1015.7
20260506093040 26 192 1.6 8.0 0.00 0.00 0.00 38 1015.7
20260506091543 26 270 4.8 12.9 0.00 0.00 0.00 36 1015.8
20260506090034 25 185 0.0 9.7 0.00 0.00 0.00 37 1015.7
20260506084535 25 248 6.4 12.9 0.00 0.00 0.00 38 1015.7
20260506083031 25 235 1.6 8.0 0.00 0.00 0.00 39 1015.7
20260506081530 24 310 3.2 11.3 0.00 0.00 0.00 40 1015.7
20260506073120 23 246 0.0 11.3 0.00 0.00 0.00 42 1015.5
20260506071537 23 238 6.4 16.1 0.00 0.00 0.00 42 1015.3
20260506070128 23 288 1.6 4.8 0.00 0.00 0.00 44 1015.3
20260506061556 22 120 0.0 3.2 0.00 0.00 0.00 47 1015.4
20260506044530 15 120 0.0 0.0 0.00 0.00 0.00 78 1015.0
20260506043025 13 120 0.0 0.0 0.00 0.00 0.00 82 1015.0
20260506041522 13 120 0.0 0.0 0.00 0.00 0.00 81 1014.9
20260506040023 13 132 0.0 0.0 0.00 0.00 0.00 81 1014.8
20260506034520 13 132 0.0 0.0 0.00 0.00 0.00 80 1014.7
20260506033015 13 132 0.0 0.0 0.00 0.00 0.00 80 1014.5
20260506031514 13 133 0.0 0.0 0.00 0.00 0.00 80 1014.5
20260506030026 13 133 0.0 0.0 0.00 0.00 0.00 79 1014.4
20260506024518 13 133 0.0 1.6 0.00 0.00 0.00 79 1014.4
20260506023012 13 133 0.0 0.0 0.00 0.00 0.00 78 1014.4
20260506021507 13 133 0.0 0.0 0.00 0.00 0.00 78 1014.5
20260506020006 13 133 0.0 0.0 0.00 0.00 0.00 77 1014.5
20260506014505 13 133 0.0 0.0 0.00 0.00 0.00 77 1014.7
20260506013008 13 133 0.0 0.0 0.00 0.00 0.00 77 1014.7
20260506011504 13 133 0.0 0.0 0.00 0.00 0.00 76 1014.6
20260506010002 14 133 0.0 0.0 0.00 0.00 0.00 77 1014.7
20260506004503 14 133 0.0 0.0 0.00 0.00 0.00 76 1014.9
20260506003001 14 133 0.0 0.0 0.00 0.00 0.00 76 1014.8
20260506001600 14 133 0.0 0.0 0.00 0.00 0.00 75 1014.8
20260506000101 14 133 0.0 0.0 0.00 0.00 0.00 75 1014.8
20260505234558 14 133 0.0 0.0 0.00 0.00 0.00 76 1014.9
20260505233054 15 133 0.0 0.0 0.00 0.00 0.00 74 1015.0
20260505231553 15 133 0.0 0.0 0.00 0.00 0.00 74 1015.1
20260505224550 15 133 0.0 0.0 0.00 0.00 0.00 73 1015.3
20260505223056 15 133 0.0 0.0 0.00 0.00 0.00 72 1015.3
20260505221547 15 133 0.0 0.0 0.00 0.00 0.00 71 1015.3
20260505220046 15 133 0.0 0.0 0.00 0.00 0.00 71 1015.3
20260505214545 15 133 0.0 0.0 0.00 0.00 0.00 70 1015.3
20260505213053 16 133 0.0 0.0 0.00 0.00 0.00 69 1015.3
20260505211540 16 133 0.0 0.0 0.00 0.00 0.00 68 1015.4
20260505210038 16 133 0.0 0.0 0.00 0.00 0.00 67 1015.5
20260505204539 16 133 0.0 0.0 0.00 0.00 0.00 66 1015.4
20260505203045 17 133 0.0 0.0 0.00 0.00 0.00 65 1015.5
20260505201538 17 133 0.0 0.0 0.00 0.00 0.00 65 1015.5
20260505200037 17 133 0.0 1.6 0.00 0.00 0.00 64 1015.5
20260505194535 17 133 0.0 0.0 0.00 0.00 0.00 62 1015.5
20260505193035 18 133 0.0 0.0 0.00 0.00 0.00 62 1015.5
20260505191534 18 133 0.0 0.0 0.00 0.00 0.00 60 1015.4
20260505190033 18 133 0.0 0.0 0.00 0.00 0.00 59 1015.3
20260505184533 19 133 0.0 0.0 0.00 0.00 0.00 57 1015.2
20260505183033 19 133 0.0 0.0 0.00 0.00 0.00 56 1015.1
20260505181645 19 132 0.0 3.2 0.00 0.00 0.00 54 1014.9
20260505180031 20 123 0.0 1.6 0.00 0.00 0.00 54 1014.8
20260505174531 20 123 0.0 1.6 0.00 0.00 0.00 54 1014.7
20260505173041 21 123 0.0 1.6 0.00 0.00 0.00 53 1014.5
20260505171530 21 123 0.0 1.6 0.00 0.00 0.00 52 1014.5
20260505170033 21 121 1.6 9.7 0.00 0.00 0.00 53 1014.6
20260505164629 21 104 3.2 6.4 0.00 0.00 0.00 52 1014.6
20260505163028 22 69 1.6 6.4 0.00 0.00 0.00 51 1014.8
20260505161528 23 108 3.2 9.7 0.00 0.00 0.00 50 1014.6
20260505153035 26 237 0.0 4.8 0.00 0.00 0.00 30 1014.4
20260505151526 26 248 3.2 8.0 0.00 0.00 0.00 31 1014.4